{"data":{"norad_id":66442,"intl_designator":"2025-259W","name":"STARLINK-34724","alt_names":[],"object_type":"PAYLOAD","status":"ACTIVE","operator":null,"country":"US","launch_date":"2025-11-11","launch_site_code":"AFETR","launch_vehicle":null,"mission":null,"orbit_class":"UNKNOWN","rcs_meters":null,"size_class":null,"mass_kg":null,"dimensions":null,"purposes":["comms"],"wikipedia_slug":null,"has_3d_model":false,"image_url":null,"decayed_at":null,"tle_current":{"epoch":"2026-05-25T04:12:03.480192Z","epoch_age_seconds":50177,"freshness":"FRESH","line1":"1 66442U 25259W   26145.17504028  .00014933  00000+0  55089-3 0  9999","line2":"2 66442  42.9994 202.8327 0001477 280.2105  79.8580 15.27590886 31183","mean_motion":15.27590886,"eccentricity":0.0001477,"inclination_deg":42.9994,"raan_deg":202.8327,"arg_perigee_deg":280.2105,"mean_anomaly_deg":79.858,"bstar":0.00055089,"rev_number":3118,"period_min":94.266076944897,"perigee_km":482.00310726112,"apogee_km":484.02989200491,"semimajor_km":6861.153499633,"source":"CELESTRAK","updated_at":"2026-05-25T13:38:21.211443Z"}}}